Year,Month,Day,Hour,Minute,Value (Times are PST for temperature in C)
2017,11,26,00,00,7.80
2017,11,26,00,01,7.80
2017,11,26,00,02,7.80
2017,11,26,00,03,7.80
2017,11,26,00,04,7.80
2017,11,26,00,05,7.80
2017,11,26,00,06,7.80
2017,11,26,00,07,7.80
2017,11,26,00,08,7.80
2017,11,26,00,09,7.80
2017,11,26,00,10,7.80
2017,11,26,00,11,7.80
2017,11,26,00,12,7.80
2017,11,26,00,13,7.80
2017,11,26,00,14,7.80
2017,11,26,00,15,7.80
2017,11,26,00,16,7.80
2017,11,26,00,17,7.80
2017,11,26,00,18,7.80
2017,11,26,00,19,7.90
2017,11,26,00,20,7.90
2017,11,26,00,21,7.90
2017,11,26,00,22,7.90
2017,11,26,00,23,7.90
2017,11,26,00,24,7.90
2017,11,26,00,25,7.90
2017,11,26,00,26,7.90
2017,11,26,00,27,7.90
2017,11,26,00,28,7.90
2017,11,26,00,29,7.90
2017,11,26,00,30,7.90
2017,11,26,00,31,7.90
2017,11,26,00,32,7.90
2017,11,26,00,33,7.90
2017,11,26,00,34,7.90
2017,11,26,00,35,7.90
2017,11,26,00,36,7.90
2017,11,26,00,37,7.90
2017,11,26,00,38,7.90
2017,11,26,00,39,7.90
2017,11,26,00,40,7.90
2017,11,26,00,41,7.90
2017,11,26,00,42,7.90
2017,11,26,00,43,7.90
2017,11,26,00,44,7.90
2017,11,26,00,45,7.90
2017,11,26,00,46,7.90
2017,11,26,00,47,7.90
2017,11,26,00,48,7.90
2017,11,26,00,49,7.90
2017,11,26,00,50,7.90
2017,11,26,00,51,7.90
2017,11,26,00,52,8.00
2017,11,26,00,53,8.00
2017,11,26,00,54,8.00
2017,11,26,00,55,7.90
2017,11,26,00,56,8.00
2017,11,26,00,57,8.00
2017,11,26,00,58,8.00
2017,11,26,00,59,8.00
2017,11,26,01,00,8.00
2017,11,26,01,01,8.00
2017,11,26,01,02,8.00
2017,11,26,01,03,8.00
2017,11,26,01,04,8.00
2017,11,26,01,05,8.10
2017,11,26,01,06,8.10
2017,11,26,01,07,8.10
2017,11,26,01,08,8.10
2017,11,26,01,09,8.10
2017,11,26,01,10,8.10
2017,11,26,01,11,8.10
2017,11,26,01,12,8.10
2017,11,26,01,13,8.10
2017,11,26,01,14,8.10
2017,11,26,01,15,8.20
2017,11,26,01,16,8.20
2017,11,26,01,17,8.20
2017,11,26,01,18,8.20
2017,11,26,01,19,8.20
2017,11,26,01,20,8.30
2017,11,26,01,21,8.30
2017,11,26,01,22,8.30
2017,11,26,01,23,8.30
2017,11,26,01,24,8.30
2017,11,26,01,25,8.30
2017,11,26,01,26,8.30
2017,11,26,01,27,8.40
2017,11,26,01,28,8.40
2017,11,26,01,29,8.40
2017,11,26,01,30,8.50
2017,11,26,01,31,8.50
2017,11,26,01,32,8.60
2017,11,26,01,33,8.60
2017,11,26,01,34,8.70
2017,11,26,01,35,8.80
2017,11,26,01,36,8.90
2017,11,26,01,37,9.00
2017,11,26,01,38,9.00
2017,11,26,01,39,9.00
2017,11,26,01,40,9.10
2017,11,26,01,41,9.10
2017,11,26,01,42,9.10
2017,11,26,01,43,9.20
2017,11,26,01,44,9.20
2017,11,26,01,45,9.20
2017,11,26,01,46,9.20
2017,11,26,01,47,9.20
2017,11,26,01,48,9.20
2017,11,26,01,49,9.20
2017,11,26,01,50,9.20
2017,11,26,01,51,9.20
2017,11,26,01,52,9.20
2017,11,26,01,53,9.20
2017,11,26,01,54,9.20
2017,11,26,01,55,9.20
2017,11,26,01,56,9.10
2017,11,26,01,57,9.10
2017,11,26,01,58,9.00
2017,11,26,01,59,8.90
2017,11,26,02,00,8.80
2017,11,26,02,01,8.80
2017,11,26,02,02,8.70
2017,11,26,02,03,8.70
2017,11,26,02,04,8.70
2017,11,26,02,05,8.80
2017,11,26,02,06,8.80
2017,11,26,02,07,8.80
2017,11,26,02,08,8.90
2017,11,26,02,09,8.90
2017,11,26,02,10,8.80
2017,11,26,02,11,8.80
2017,11,26,02,12,8.80
2017,11,26,02,13,8.80
2017,11,26,02,14,8.80
2017,11,26,02,15,8.80
2017,11,26,02,16,8.80
2017,11,26,02,17,8.80
2017,11,26,02,18,8.80
2017,11,26,02,19,8.80
2017,11,26,02,20,8.80
2017,11,26,02,21,8.80
2017,11,26,02,22,8.80
2017,11,26,02,23,8.80
2017,11,26,02,24,8.80
2017,11,26,02,25,8.80
2017,11,26,02,26,8.80
2017,11,26,02,27,8.80
2017,11,26,02,28,8.80
2017,11,26,02,29,8.80
2017,11,26,02,30,8.80
2017,11,26,02,31,8.80
2017,11,26,02,32,8.80
2017,11,26,02,33,8.80
2017,11,26,02,34,8.80
2017,11,26,02,35,8.80
2017,11,26,02,36,8.80
2017,11,26,02,37,8.80
2017,11,26,02,38,8.90
2017,11,26,02,39,8.90
2017,11,26,02,40,8.90
2017,11,26,02,41,8.90
2017,11,26,02,42,8.90
2017,11,26,02,43,8.90
2017,11,26,02,44,8.90
2017,11,26,02,45,8.90
2017,11,26,02,46,9.00
2017,11,26,02,47,9.00
2017,11,26,02,48,9.00
2017,11,26,02,49,9.00
2017,11,26,02,50,9.00
2017,11,26,02,51,9.10
2017,11,26,02,52,9.10
2017,11,26,02,53,9.10
2017,11,26,02,54,9.10
2017,11,26,02,55,9.10
2017,11,26,02,56,9.10
2017,11,26,02,57,9.10
2017,11,26,02,58,9.20
2017,11,26,02,59,9.20
2017,11,26,03,00,9.20
2017,11,26,03,01,9.20
2017,11,26,03,02,9.20
2017,11,26,03,03,9.20
2017,11,26,03,04,9.30
2017,11,26,03,05,9.30
2017,11,26,03,06,9.30
2017,11,26,03,07,9.30
2017,11,26,03,08,9.30
2017,11,26,03,09,9.40
2017,11,26,03,10,9.40
2017,11,26,03,11,9.40
2017,11,26,03,12,9.50
2017,11,26,03,13,9.50
2017,11,26,03,14,9.60
2017,11,26,03,15,9.60
2017,11,26,03,16,9.70
2017,11,26,03,17,9.90
2017,11,26,03,18,10.10
2017,11,26,03,19,10.30
2017,11,26,03,20,10.50
2017,11,26,03,21,10.70
2017,11,26,03,22,10.80
2017,11,26,03,23,10.80
2017,11,26,03,24,10.80
2017,11,26,03,25,10.90
2017,11,26,03,26,10.90
2017,11,26,03,27,10.90
2017,11,26,03,28,10.90
2017,11,26,03,29,11.00
2017,11,26,03,30,11.10
2017,11,26,03,31,11.10
2017,11,26,03,32,11.10
2017,11,26,03,33,11.10
2017,11,26,03,34,11.10
2017,11,26,03,35,11.20
2017,11,26,03,36,11.20
2017,11,26,03,37,11.20
2017,11,26,03,38,11.20
2017,11,26,03,39,11.20
2017,11,26,03,40,11.20
2017,11,26,03,41,11.20
2017,11,26,03,42,11.30
2017,11,26,03,43,11.30
2017,11,26,03,44,11.30
2017,11,26,03,45,11.40
2017,11,26,03,46,11.40
2017,11,26,03,47,11.40
2017,11,26,03,48,11.40
2017,11,26,03,49,11.40
2017,11,26,03,50,11.40
2017,11,26,03,51,11.30
2017,11,26,03,52,11.30
2017,11,26,03,53,11.20
2017,11,26,03,54,11.20
2017,11,26,03,55,11.20
2017,11,26,03,56,11.20
2017,11,26,03,57,11.20
2017,11,26,03,58,11.20
2017,11,26,03,59,11.20
2017,11,26,04,00,11.10
2017,11,26,04,01,11.10
2017,11,26,04,02,11.10
2017,11,26,04,03,11.10
2017,11,26,04,04,11.10
2017,11,26,04,05,11.10
2017,11,26,04,06,11.10
2017,11,26,04,07,11.10
2017,11,26,04,08,11.20
2017,11,26,04,09,11.20
2017,11,26,04,10,11.20
2017,11,26,04,11,11.30
2017,11,26,04,12,11.30
2017,11,26,04,13,11.30
2017,11,26,04,14,11.40
2017,11,26,04,15,11.40
2017,11,26,04,16,11.50
2017,11,26,04,17,11.60
2017,11,26,04,18,11.60
2017,11,26,04,19,11.60
2017,11,26,04,20,11.70
2017,11,26,04,21,11.80
2017,11,26,04,22,11.80
2017,11,26,04,23,11.80
2017,11,26,04,24,11.80
2017,11,26,04,25,11.80
2017,11,26,04,26,11.70
2017,11,26,04,27,11.60
2017,11,26,04,28,11.50
2017,11,26,04,29,11.50
2017,11,26,04,30,11.40
2017,11,26,04,31,11.40
2017,11,26,04,32,11.40
2017,11,26,04,33,11.40
2017,11,26,04,34,11.30
2017,11,26,04,35,11.30
2017,11,26,04,36,11.30
2017,11,26,04,37,11.30
2017,11,26,04,38,11.30
2017,11,26,04,39,11.20
2017,11,26,04,40,11.20
2017,11,26,04,41,11.20
2017,11,26,04,42,11.20
2017,11,26,04,43,11.20
2017,11,26,04,44,11.10
2017,11,26,04,45,11.10
2017,11,26,04,46,11.10
2017,11,26,04,47,11.20
2017,11,26,04,48,11.20
2017,11,26,04,49,11.20
2017,11,26,04,50,11.30
2017,11,26,04,51,11.30
2017,11,26,04,52,11.30
2017,11,26,04,53,11.30
2017,11,26,04,54,11.30
2017,11,26,04,55,11.30
2017,11,26,04,56,11.20
2017,11,26,04,57,11.20
2017,11,26,04,58,11.20
2017,11,26,04,59,11.10
2017,11,26,05,00,11.10
2017,11,26,05,01,11.10
2017,11,26,05,02,11.10
2017,11,26,05,03,11.10
2017,11,26,05,04,11.10
2017,11,26,05,05,11.00
2017,11,26,05,06,11.00
2017,11,26,05,07,11.10
2017,11,26,05,08,11.10
2017,11,26,05,09,11.10
2017,11,26,05,10,11.10
2017,11,26,05,11,11.10
2017,11,26,05,12,11.10
2017,11,26,05,13,11.20
2017,11,26,05,14,11.20
2017,11,26,05,15,11.20
2017,11,26,05,16,11.20
2017,11,26,05,17,11.20
2017,11,26,05,18,11.20
2017,11,26,05,19,11.20
2017,11,26,05,20,11.20
2017,11,26,05,21,11.20
2017,11,26,05,22,11.20
2017,11,26,05,23,11.30
2017,11,26,05,24,11.30
2017,11,26,05,25,11.30
2017,11,26,05,26,11.30
2017,11,26,05,27,11.30
2017,11,26,05,28,11.40
2017,11,26,05,29,11.40
2017,11,26,05,30,11.50
2017,11,26,05,31,11.60
2017,11,26,05,32,11.60
2017,11,26,05,33,11.60
2017,11,26,05,34,11.60
2017,11,26,05,35,11.60
2017,11,26,05,36,11.60
2017,11,26,05,37,11.70
2017,11,26,05,38,11.70
2017,11,26,05,39,11.70
2017,11,26,05,40,11.70
2017,11,26,05,41,11.70
2017,11,26,05,42,11.70
2017,11,26,05,43,11.70
2017,11,26,05,44,11.80
2017,11,26,05,45,11.80
2017,11,26,05,46,11.90
2017,11,26,05,47,12.00
2017,11,26,05,48,12.20
2017,11,26,05,49,12.30
2017,11,26,05,50,12.40
2017,11,26,05,51,12.50
2017,11,26,05,52,12.70
2017,11,26,05,53,12.70
2017,11,26,05,54,12.70
2017,11,26,05,55,12.70
2017,11,26,05,56,12.70
2017,11,26,05,57,12.80
2017,11,26,05,58,12.90
2017,11,26,05,59,12.90
2017,11,26,06,00,12.90
2017,11,26,06,01,12.90
2017,11,26,06,02,12.90
2017,11,26,06,03,12.90
2017,11,26,06,04,12.90
2017,11,26,06,05,13.00
2017,11,26,06,06,13.10
2017,11,26,06,07,13.20
2017,11,26,06,08,13.30
2017,11,26,06,09,13.30
2017,11,26,06,10,13.40
2017,11,26,06,11,13.40
2017,11,26,06,12,13.50
2017,11,26,06,13,13.50
2017,11,26,06,14,13.50
2017,11,26,06,15,13.50
2017,11,26,06,16,13.50
2017,11,26,06,17,13.50
2017,11,26,06,18,13.40
2017,11,26,06,19,13.40
2017,11,26,06,20,13.30
2017,11,26,06,21,13.10
2017,11,26,06,22,13.00
2017,11,26,06,23,12.90
2017,11,26,06,24,12.90
2017,11,26,06,25,12.90
2017,11,26,06,26,12.90
2017,11,26,06,27,12.80
2017,11,26,06,28,12.70
2017,11,26,06,29,12.50
2017,11,26,06,30,12.40
2017,11,26,06,31,12.40
2017,11,26,06,32,12.40
2017,11,26,06,33,12.50
2017,11,26,06,34,12.50
2017,11,26,06,35,12.60
2017,11,26,06,36,12.60
2017,11,26,06,37,12.60
2017,11,26,06,38,12.60
2017,11,26,06,39,12.60
2017,11,26,06,40,12.60
2017,11,26,06,41,12.60
2017,11,26,06,42,12.50
2017,11,26,06,43,12.50
2017,11,26,06,44,12.40
2017,11,26,06,45,12.40
2017,11,26,06,46,12.40
2017,11,26,06,47,12.40
2017,11,26,06,48,12.30
2017,11,26,06,49,12.30
2017,11,26,06,50,12.30
2017,11,26,06,51,12.20
2017,11,26,06,52,12.20
2017,11,26,06,53,12.20
2017,11,26,06,54,12.20
2017,11,26,06,55,12.20
2017,11,26,06,56,12.20
2017,11,26,06,57,12.20
2017,11,26,06,58,12.10
2017,11,26,06,59,12.10
2017,11,26,07,00,12.10
2017,11,26,07,01,12.10
2017,11,26,07,02,12.10
2017,11,26,07,03,12.10
2017,11,26,07,04,12.10
2017,11,26,07,05,12.10
2017,11,26,07,06,12.10
2017,11,26,07,07,12.10
2017,11,26,07,08,12.10
2017,11,26,07,09,12.00
2017,11,26,07,10,11.90
2017,11,26,07,11,11.90
2017,11,26,07,12,11.80
2017,11,26,07,13,11.70
2017,11,26,07,14,11.60
2017,11,26,07,15,11.60
2017,11,26,07,16,11.60
2017,11,26,07,17,11.50
2017,11,26,07,18,11.50
2017,11,26,07,19,11.50
2017,11,26,07,20,11.50
2017,11,26,07,21,11.50
2017,11,26,07,22,11.50
2017,11,26,07,23,11.50
2017,11,26,07,24,11.60
2017,11,26,07,25,11.60
2017,11,26,07,26,11.60
2017,11,26,07,27,11.60
2017,11,26,07,28,11.60
2017,11,26,07,29,11.50
2017,11,26,07,30,11.50
2017,11,26,07,31,11.60
2017,11,26,07,32,11.70
2017,11,26,07,33,11.70
2017,11,26,07,34,11.70
2017,11,26,07,35,11.70
2017,11,26,07,36,11.70
2017,11,26,07,37,11.70
2017,11,26,07,38,11.70
2017,11,26,07,39,11.80
2017,11,26,07,40,11.70
2017,11,26,07,41,11.70
2017,11,26,07,42,11.70
2017,11,26,07,43,11.70
2017,11,26,07,44,11.60
2017,11,26,07,45,11.60
2017,11,26,07,46,11.60
2017,11,26,07,47,11.60
2017,11,26,07,48,11.70
2017,11,26,07,49,11.70
2017,11,26,07,50,11.70
2017,11,26,07,51,11.70
2017,11,26,07,52,11.70
2017,11,26,07,53,11.70
2017,11,26,07,54,11.70
2017,11,26,07,55,11.70
2017,11,26,07,56,11.70
2017,11,26,07,57,11.70
2017,11,26,07,58,11.80
2017,11,26,07,59,11.80
2017,11,26,08,00,11.90
2017,11,26,08,01,11.90
2017,11,26,08,02,11.90
2017,11,26,08,03,11.90
2017,11,26,08,04,11.90
2017,11,26,08,05,12.00
2017,11,26,08,06,12.00
2017,11,26,08,07,11.90
2017,11,26,08,08,11.80
2017,11,26,08,09,11.90
2017,11,26,08,10,11.90
2017,11,26,08,11,11.90
2017,11,26,08,12,11.90
2017,11,26,08,13,11.90
2017,11,26,08,14,11.90
2017,11,26,08,15,11.90
2017,11,26,08,16,11.90
2017,11,26,08,17,11.90
2017,11,26,08,18,11.80
2017,11,26,08,19,11.80
2017,11,26,08,20,11.80
2017,11,26,08,21,11.80
2017,11,26,08,22,11.80
2017,11,26,08,23,11.80
2017,11,26,08,24,11.80
2017,11,26,08,25,11.80
2017,11,26,08,26,11.80
2017,11,26,08,27,11.80
2017,11,26,08,28,11.80
2017,11,26,08,29,11.90
2017,11,26,08,30,11.80
2017,11,26,08,31,11.80
2017,11,26,08,32,11.90
2017,11,26,08,33,11.80
2017,11,26,08,34,11.80
2017,11,26,08,35,11.80
2017,11,26,08,36,11.80
2017,11,26,08,37,11.80
2017,11,26,08,38,11.80
2017,11,26,08,39,11.80
2017,11,26,08,40,11.80
2017,11,26,08,41,11.80
2017,11,26,08,42,11.80
2017,11,26,08,43,11.80
2017,11,26,08,44,11.80
2017,11,26,08,45,11.80
2017,11,26,08,46,11.80
2017,11,26,08,47,11.80
2017,11,26,08,48,11.80
2017,11,26,08,49,11.80
2017,11,26,08,50,11.80
2017,11,26,08,51,11.70
2017,11,26,08,52,11.70
2017,11,26,08,53,11.70
2017,11,26,08,54,11.70
2017,11,26,08,55,11.60
2017,11,26,08,56,11.60
2017,11,26,08,57,11.60
2017,11,26,08,58,11.60
2017,11,26,08,59,11.60
2017,11,26,09,00,11.60
2017,11,26,09,01,11.60
2017,11,26,09,02,11.50
2017,11,26,09,03,11.50
2017,11,26,09,04,11.60
2017,11,26,09,05,11.60
2017,11,26,09,06,11.60
2017,11,26,09,07,11.60
2017,11,26,09,08,11.60
2017,11,26,09,09,11.60
2017,11,26,09,10,11.60
2017,11,26,09,11,11.60
2017,11,26,09,12,11.50
2017,11,26,09,13,11.50
2017,11,26,09,14,11.50
2017,11,26,09,15,11.50
2017,11,26,09,16,11.50
2017,11,26,09,17,11.50
2017,11,26,09,18,11.50
2017,11,26,09,19,11.50
2017,11,26,09,20,11.50
2017,11,26,09,21,11.50
2017,11,26,09,22,11.50
2017,11,26,09,23,11.50
2017,11,26,09,24,11.50
2017,11,26,09,25,11.60
2017,11,26,09,26,11.60
2017,11,26,09,27,11.60
2017,11,26,09,28,11.50
2017,11,26,09,29,11.50
2017,11,26,09,30,11.50
2017,11,26,09,31,11.50
2017,11,26,09,32,11.50
2017,11,26,09,33,11.50
2017,11,26,09,34,11.40
2017,11,26,09,35,11.40
2017,11,26,09,36,11.50
2017,11,26,09,37,11.50
2017,11,26,09,38,11.50
2017,11,26,09,39,11.50
2017,11,26,09,40,11.50
2017,11,26,09,41,11.40
2017,11,26,09,42,11.40
2017,11,26,09,43,11.30
2017,11,26,09,44,11.30
2017,11,26,09,45,11.30
2017,11,26,09,46,11.30
2017,11,26,09,47,11.20
2017,11,26,09,48,11.20
2017,11,26,09,49,11.20
2017,11,26,09,50,11.10
2017,11,26,09,51,11.10
2017,11,26,09,52,11.10
2017,11,26,09,53,11.00
2017,11,26,09,54,10.90
2017,11,26,09,55,10.90
2017,11,26,09,56,10.90
2017,11,26,09,57,10.90
2017,11,26,09,58,10.80
2017,11,26,09,59,10.90
2017,11,26,10,00,10.90
2017,11,26,10,01,10.90
2017,11,26,10,02,10.90
2017,11,26,10,03,10.90
2017,11,26,10,04,10.90
2017,11,26,10,05,10.90
2017,11,26,10,06,10.80
2017,11,26,10,07,10.80
2017,11,26,10,08,10.80
2017,11,26,10,09,10.80
2017,11,26,10,10,10.80
2017,11,26,10,11,10.80
2017,11,26,10,12,10.80
2017,11,26,10,13,10.80
2017,11,26,10,14,10.70
2017,11,26,10,15,10.70
2017,11,26,10,16,10.70
2017,11,26,10,17,10.70
2017,11,26,10,18,10.70
2017,11,26,10,19,10.70
2017,11,26,10,20,10.70
2017,11,26,10,21,10.60
2017,11,26,10,22,10.50
2017,11,26,10,23,10.50
2017,11,26,10,24,10.50
2017,11,26,10,25,10.50
2017,11,26,10,26,10.50
2017,11,26,10,27,10.40
2017,11,26,10,28,10.40
2017,11,26,10,29,10.40
2017,11,26,10,30,10.40
2017,11,26,10,31,10.40
2017,11,26,10,32,10.40
2017,11,26,10,33,10.40
2017,11,26,10,34,10.50
2017,11,26,10,35,10.40
2017,11,26,10,36,10.40
2017,11,26,10,37,10.40
2017,11,26,10,38,10.40
2017,11,26,10,39,10.40
2017,11,26,10,40,10.40
2017,11,26,10,41,10.40
2017,11,26,10,42,10.40
2017,11,26,10,43,10.40
2017,11,26,10,44,10.50
2017,11,26,10,45,10.50
2017,11,26,10,46,10.50
2017,11,26,10,47,10.50
2017,11,26,10,48,10.50
2017,11,26,10,49,10.50
2017,11,26,10,50,10.50
2017,11,26,10,51,10.60
2017,11,26,10,52,10.60
2017,11,26,10,53,10.60
2017,11,26,10,54,10.60
2017,11,26,10,55,10.60
2017,11,26,10,56,10.60
2017,11,26,10,57,10.60
2017,11,26,10,58,10.50
2017,11,26,10,59,10.50
2017,11,26,11,00,10.50
2017,11,26,11,01,10.50
2017,11,26,11,02,10.40
2017,11,26,11,03,10.40
2017,11,26,11,04,10.40
2017,11,26,11,05,10.40
2017,11,26,11,06,10.30
2017,11,26,11,07,10.30
2017,11,26,11,08,10.30
2017,11,26,11,09,10.30
2017,11,26,11,10,10.30
2017,11,26,11,11,10.30
2017,11,26,11,12,10.30
2017,11,26,11,13,10.20
2017,11,26,11,14,10.20
2017,11,26,11,15,10.20
2017,11,26,11,16,10.20
2017,11,26,11,17,10.20
2017,11,26,11,18,10.10
2017,11,26,11,19,10.10
2017,11,26,11,20,10.10
2017,11,26,11,21,10.10
2017,11,26,11,22,10.00
2017,11,26,11,23,10.00
2017,11,26,11,24,10.00
2017,11,26,11,25,9.90
2017,11,26,11,26,9.90
2017,11,26,11,27,9.90
2017,11,26,11,28,9.80
2017,11,26,11,29,9.80
2017,11,26,11,30,9.80
2017,11,26,11,31,9.80
2017,11,26,11,32,9.80
2017,11,26,11,33,9.70
2017,11,26,11,34,9.70
2017,11,26,11,35,9.70
2017,11,26,11,36,9.80
2017,11,26,11,37,9.80
2017,11,26,11,38,9.80
2017,11,26,11,39,9.90
2017,11,26,11,40,9.90
2017,11,26,11,41,9.90
2017,11,26,11,42,9.90
2017,11,26,11,43,10.00
2017,11,26,11,44,10.00
2017,11,26,11,45,10.00
2017,11,26,11,46,10.00
2017,11,26,11,47,10.00
2017,11,26,11,48,10.00
2017,11,26,11,49,10.00
2017,11,26,11,50,10.00
2017,11,26,11,51,10.00
2017,11,26,11,52,10.00
2017,11,26,11,53,10.00
2017,11,26,11,54,10.00
2017,11,26,11,55,10.00
2017,11,26,11,56,10.00
2017,11,26,11,57,9.90
2017,11,26,11,58,9.90
2017,11,26,11,59,9.90
2017,11,26,12,00,9.90
2017,11,26,12,01,9.90
2017,11,26,12,02,9.90
2017,11,26,12,03,9.90
2017,11,26,12,04,9.90
2017,11,26,12,05,9.90
2017,11,26,12,06,9.90
2017,11,26,12,07,9.90
2017,11,26,12,08,9.90
2017,11,26,12,09,9.90
2017,11,26,12,10,9.90
2017,11,26,12,11,9.80
2017,11,26,12,12,9.80
2017,11,26,12,13,9.80
2017,11,26,12,14,9.80
2017,11,26,12,15,9.80
2017,11,26,12,16,9.70
2017,11,26,12,17,9.70
2017,11,26,12,18,9.70
2017,11,26,12,19,9.70
2017,11,26,12,20,9.70
2017,11,26,12,21,9.70
2017,11,26,12,22,9.70
2017,11,26,12,23,9.70
2017,11,26,12,24,9.70
2017,11,26,12,25,9.70
2017,11,26,12,26,9.70
2017,11,26,12,27,9.70
2017,11,26,12,28,9.70
2017,11,26,12,29,9.60
2017,11,26,12,30,9.60
2017,11,26,12,31,9.70
2017,11,26,12,32,9.70
2017,11,26,12,33,9.70
2017,11,26,12,34,9.70
2017,11,26,12,35,9.80
2017,11,26,12,36,9.80
2017,11,26,12,37,9.80
2017,11,26,12,38,9.80
2017,11,26,12,39,9.80
2017,11,26,12,40,9.80
2017,11,26,12,41,9.80
2017,11,26,12,42,9.80
2017,11,26,12,43,9.70
2017,11,26,12,44,9.70
2017,11,26,12,45,9.70
2017,11,26,12,46,9.70
2017,11,26,12,47,9.70
2017,11,26,12,48,9.60
2017,11,26,12,49,9.60
2017,11,26,12,50,9.60
2017,11,26,12,51,9.60
2017,11,26,12,52,9.60
2017,11,26,12,53,9.60
2017,11,26,12,54,9.60
2017,11,26,12,55,9.60
2017,11,26,12,56,9.60
2017,11,26,12,57,9.60
2017,11,26,12,58,9.60
2017,11,26,12,59,9.60
2017,11,26,13,00,9.50
2017,11,26,13,01,9.50
2017,11,26,13,02,9.40
2017,11,26,13,03,9.40
2017,11,26,13,04,9.40
2017,11,26,13,05,9.40
2017,11,26,13,06,9.40
2017,11,26,13,07,9.40
2017,11,26,13,08,9.40
2017,11,26,13,09,9.50
2017,11,26,13,10,9.50
2017,11,26,13,11,9.60
2017,11,26,13,12,9.60
2017,11,26,13,13,9.60
2017,11,26,13,14,9.60
2017,11,26,13,15,9.60
2017,11,26,13,16,9.60
2017,11,26,13,17,9.60
2017,11,26,13,18,9.60
2017,11,26,13,19,9.60
2017,11,26,13,20,9.60
2017,11,26,13,21,9.60
2017,11,26,13,22,9.60
2017,11,26,13,23,9.60
2017,11,26,13,24,9.60
2017,11,26,13,25,9.60
2017,11,26,13,26,9.60
2017,11,26,13,27,9.60
2017,11,26,13,28,9.50
2017,11,26,13,29,9.50
2017,11,26,13,30,9.50
2017,11,26,13,31,9.40
2017,11,26,13,32,9.50
2017,11,26,13,33,9.50
2017,11,26,13,34,9.50
2017,11,26,13,35,9.50
2017,11,26,13,36,9.50
2017,11,26,13,37,9.50
2017,11,26,13,38,9.60
2017,11,26,13,39,9.60
2017,11,26,13,40,9.60
2017,11,26,13,41,9.60
2017,11,26,13,42,9.60
2017,11,26,13,43,9.60
2017,11,26,13,44,9.60
2017,11,26,13,45,9.60
2017,11,26,13,46,9.70
2017,11,26,13,47,9.70
2017,11,26,13,48,9.70
2017,11,26,13,49,9.80
2017,11,26,13,50,9.80
2017,11,26,13,51,9.80
2017,11,26,13,52,9.80
2017,11,26,13,53,9.90
2017,11,26,13,54,9.90
2017,11,26,13,55,9.90
2017,11,26,13,56,10.00
2017,11,26,13,57,10.00
2017,11,26,13,58,10.10
2017,11,26,13,59,10.20
2017,11,26,14,00,10.20
2017,11,26,14,01,10.20
2017,11,26,14,02,10.30
2017,11,26,14,03,10.30
2017,11,26,14,04,10.40
2017,11,26,14,05,10.40
2017,11,26,14,06,10.40
2017,11,26,14,07,10.40
2017,11,26,14,08,10.30
2017,11,26,14,09,10.30
2017,11,26,14,10,10.20
2017,11,26,14,11,10.10
2017,11,26,14,12,10.00
2017,11,26,14,13,9.80
2017,11,26,14,14,9.70
2017,11,26,14,15,9.60
2017,11,26,14,16,9.60
2017,11,26,14,17,9.50
2017,11,26,14,18,9.40
2017,11,26,14,19,9.40
2017,11,26,14,20,9.30
2017,11,26,14,21,9.30
2017,11,26,14,22,9.30
2017,11,26,14,23,9.20
2017,11,26,14,24,9.20
2017,11,26,14,25,9.20
2017,11,26,14,26,9.20
2017,11,26,14,27,9.20
2017,11,26,14,28,9.10
2017,11,26,14,29,9.10
2017,11,26,14,30,9.10
2017,11,26,14,31,9.10
2017,11,26,14,32,9.10
2017,11,26,14,33,9.10
2017,11,26,14,34,9.10
2017,11,26,14,35,9.10
2017,11,26,14,36,9.10
2017,11,26,14,37,9.10
2017,11,26,14,38,9.20
2017,11,26,14,39,9.20
2017,11,26,14,40,9.20
2017,11,26,14,41,9.20
2017,11,26,14,42,9.20
2017,11,26,14,43,9.30
2017,11,26,14,44,9.30
2017,11,26,14,45,9.30
2017,11,26,14,46,9.40
2017,11,26,14,47,9.40
2017,11,26,14,48,9.40
2017,11,26,14,49,9.50
2017,11,26,14,50,9.50
2017,11,26,14,51,9.50
2017,11,26,14,52,9.50
2017,11,26,14,53,9.50
2017,11,26,14,54,9.50
2017,11,26,14,55,9.50
2017,11,26,14,56,9.50
2017,11,26,14,57,9.50
2017,11,26,14,58,9.50
2017,11,26,14,59,9.40
2017,11,26,15,00,9.40
2017,11,26,15,01,9.40
2017,11,26,15,02,9.40
2017,11,26,15,03,9.40
2017,11,26,15,04,9.40
2017,11,26,15,05,9.40
2017,11,26,15,06,9.40
2017,11,26,15,07,9.50
2017,11,26,15,08,9.60
2017,11,26,15,09,9.60
2017,11,26,15,10,9.60
2017,11,26,15,11,9.60
2017,11,26,15,12,9.60
2017,11,26,15,13,9.60
2017,11,26,15,14,9.60
2017,11,26,15,15,9.60
2017,11,26,15,16,9.60
2017,11,26,15,17,9.60
2017,11,26,15,18,9.60
2017,11,26,15,19,9.60
2017,11,26,15,20,9.60
2017,11,26,15,21,9.60
2017,11,26,15,22,9.60
2017,11,26,15,23,9.60
2017,11,26,15,24,9.60
2017,11,26,15,25,9.60
2017,11,26,15,26,9.50
2017,11,26,15,27,9.40
2017,11,26,15,28,9.40
2017,11,26,15,29,9.30
2017,11,26,15,30,9.30
2017,11,26,15,31,9.30
2017,11,26,15,32,9.30
2017,11,26,15,33,9.20
2017,11,26,15,34,9.20
2017,11,26,15,35,9.20
2017,11,26,15,36,9.20
2017,11,26,15,37,9.10
2017,11,26,15,38,9.10
2017,11,26,15,39,9.10
2017,11,26,15,40,9.10
2017,11,26,15,41,9.00
2017,11,26,15,42,9.00
2017,11,26,15,43,8.90
2017,11,26,15,44,8.90
2017,11,26,15,45,8.90
2017,11,26,15,46,8.90
2017,11,26,15,47,8.80
2017,11,26,15,48,8.80
2017,11,26,15,49,8.80
2017,11,26,15,50,8.80
2017,11,26,15,51,8.80
2017,11,26,15,52,8.70
2017,11,26,15,53,8.80
2017,11,26,15,54,8.80
2017,11,26,15,55,8.80
2017,11,26,15,56,8.80
2017,11,26,15,57,8.70
2017,11,26,15,58,8.70
2017,11,26,15,59,8.70
2017,11,26,16,00,8.60
2017,11,26,16,01,8.60
2017,11,26,16,02,8.60
2017,11,26,16,03,8.60
2017,11,26,16,04,8.50
2017,11,26,16,05,8.40
2017,11,26,16,06,8.40
2017,11,26,16,07,8.30
2017,11,26,16,08,8.30
2017,11,26,16,09,8.20
2017,11,26,16,10,8.20
2017,11,26,16,11,8.20
2017,11,26,16,12,8.20
2017,11,26,16,13,8.30
2017,11,26,16,14,8.30
2017,11,26,16,15,8.40
2017,11,26,16,16,8.50
2017,11,26,16,17,8.60
2017,11,26,16,18,8.60
2017,11,26,16,19,8.60
2017,11,26,16,20,8.60
2017,11,26,16,21,8.60
2017,11,26,16,22,8.60
2017,11,26,16,23,8.60
2017,11,26,16,24,8.60
2017,11,26,16,25,8.50
2017,11,26,16,26,8.50
2017,11,26,16,27,8.40
2017,11,26,16,28,8.40
2017,11,26,16,29,8.50
2017,11,26,16,30,8.50
2017,11,26,16,31,8.50
2017,11,26,16,32,8.40
2017,11,26,16,33,8.40
2017,11,26,16,34,8.40
2017,11,26,16,35,8.40
2017,11,26,16,36,8.30
2017,11,26,16,37,8.30
2017,11,26,16,38,8.30
2017,11,26,16,39,8.20
2017,11,26,16,40,8.20
2017,11,26,16,41,8.20
2017,11,26,16,42,8.20
2017,11,26,16,43,8.20
2017,11,26,16,44,8.20
2017,11,26,16,45,8.20
2017,11,26,16,46,8.20
2017,11,26,16,47,8.20
2017,11,26,16,48,8.10
2017,11,26,16,49,8.10
2017,11,26,16,50,8.10
2017,11,26,16,51,8.10
2017,11,26,16,52,8.20
2017,11,26,16,53,8.20
2017,11,26,16,54,8.10
2017,11,26,16,55,8.10
2017,11,26,16,56,8.10
2017,11,26,16,57,8.10
2017,11,26,16,58,8.10
2017,11,26,16,59,8.10
2017,11,26,17,00,8.20
2017,11,26,17,01,8.20
2017,11,26,17,02,8.20
2017,11,26,17,03,8.30
2017,11,26,17,04,8.40
2017,11,26,17,05,8.40
2017,11,26,17,06,8.40
2017,11,26,17,07,8.40
2017,11,26,17,08,8.40
2017,11,26,17,09,8.40
2017,11,26,17,10,8.40
2017,11,26,17,11,8.40
2017,11,26,17,12,8.40
2017,11,26,17,13,8.40
2017,11,26,17,14,8.40
2017,11,26,17,15,8.40
2017,11,26,17,16,8.40
2017,11,26,17,17,8.40
2017,11,26,17,18,8.40
2017,11,26,17,19,8.40
2017,11,26,17,20,8.40
2017,11,26,17,21,8.40
2017,11,26,17,22,8.30
2017,11,26,17,23,8.30
2017,11,26,17,24,8.20
2017,11,26,17,25,8.10
2017,11,26,17,26,8.10
2017,11,26,17,27,8.00
2017,11,26,17,28,7.90
2017,11,26,17,29,7.70
2017,11,26,17,30,7.60
2017,11,26,17,31,7.50
2017,11,26,17,32,7.50
2017,11,26,17,33,7.40
2017,11,26,17,34,7.40
2017,11,26,17,35,7.30
2017,11,26,17,36,7.40
2017,11,26,17,37,7.40
2017,11,26,17,38,7.40
2017,11,26,17,39,7.30
2017,11,26,17,40,7.20
2017,11,26,17,41,7.20
2017,11,26,17,42,7.20
2017,11,26,17,43,7.20